Tracking 18785 objects as of 19-August-2017
HD Live streaming from Space Station
objects crossing your sky now

OPS 9314 (IDSCS 4)

Track OPS 9314 (IDSCS 4) now!
OPS 9314 (IDSCS 4) is classified as:


NORAD ID: 2218
Int'l Code: 1966-053E
Perigee: 33,695.8 km
Apogee: 34,025.2 km
Inclination: 2.8 °
Period: 1,338.5 minutes
Semi major axis: 40231 km
RCS: 0.1 m2 (medium)
Launch date: June 16, 1966
Source: United States (US)
Launch site: AIR FORCE EASTERN TEST RANGE (AFETR)
Your satellite tracking list
Your tracking list is empty





NASA's NSSDC Master Catalog

Two Line Element Set (TLE):
1  2218U 66053E   17230.25124012 -.00000130 +00000-0 +00000-0 0  9998
2  2218 002.7962 058.5878 0040947 121.5639 109.0368 01.07585479200705
Source of the keplerian elements: AFSPC